Sierra Vista Municipal Libby Army Air Field
KFHU : now visible

Airfield :











YOU CAN JOIN US ON...

 
LOGIN :

Register | Disclaimer

   EN    FR    IT 

 









Legend :    VFR   Marginal VFR   IFR   Intensive IFR   Very Intensive IFR
Visi :
Ceiling :
>= 8 km
>= 3000ft
5 to 8 km
1000 to 3000 ft
1500m to 5 km
500 to 1000 ft
800 to 1500m
200 to 500 ft
< 800m
< 200 ft
Symbols :   Thunderstorms  Fog  Heavy snow  Heavy precipitations  Wind > 20 kt






- Airport Elevation : 4719 ft
- IATA code : FHU


KFHU - Sierra Vista Municipal Libby Army Air Field

CURRENT METAR :
  • 171918Z AUTO 24009KT 10SM CLR 17/00 A3014 RMK AO2 SLP167

EXPIRED METARs :
  • 171858Z AUTO 00000KT 10SM SCT120 17/M02 A3016 RMK AO2 SLP174 T01651020
  • 171758Z AUTO 00000KT 10SM BKN100 OVC120 15/M03 A3017 RMK AO2 SLP177 T01491035 10151 20060 51010
  • 171658Z AUTO 00000KT 10SM FEW100 SCT120 14/M04 A3017 RMK AO2 SLP181 T01401041

Expired Forecast.
KZAB FIR / North America



MET'MAP, your aeronautical weather chart ! - Copyright ORBIFLY December 2007 - Disclaimer

ORBIFLY MET'MAP TEAM :

Programming & Development : Alexandra Zaïnal
Concept & original design : Baudouin d'Aumeries
Assistance for programming : Marc-Olivier Méhu
Technical & hardware support : Manuel Goepfert

Contact : metmap@orbifly.com




SOURCES & CREDITS :

   NOAA       Earth
Advisory